Weather History for Anniston, AL

Change the Weather History Date:

Tuesday, October 22, 2013

  Actual Average Record
Temperature  
Mean Temperature 63 °F 61 °F  
Max Temperature 74 °F 73 °F 87 °F (1955)
Min Temperature 51 °F 49 °F 28 °F (1987)
Degree Days  
Heating Degree Days 2    
Month to date heating degree days 26  
Since 1 July heating degree days 26  
Growing Degree Days 14 (Base 50)    
Moisture  
Dew Point 50 °F    
Average Humidity 61    
Maximum Humidity 93    
Minimum Humidity 29    
Precipitation  
Precipitation 0.02 in 0.10 in 1.83 in (1945)
Month to date precipitation 2.61 2.16  
Year to date precipitation 63.10 40.01  
Sea Level Pressure  
Sea Level Pressure 29.95 in    
Wind  
Wind Speed 3 mph (SW)    
Max Wind Speed 10 mph    
Max Gust Speed 13 mph    
Visibility 10 miles    
Events Rain    
T = Trace of Precipitation, MM = Missing Value Source: NWS Daily Summary

Daily Weather History Graph

Daily Weather History Graph

Search for Another Location

Airport:

Trip Planner

Search our weather history database for the weather conditions in past years. The results will help you decide how hot, cold, wet, or windy it might be!

Date:

Astronomy

Oct. 22, 2013 Rise Set
Actual Time 6:53 AM CDT 6:01 PM CDT
Civil Twilight 6:28 AM CDT 6:26 PM CDT
Nautical Twilight 5:59 AM CDT 6:55 PM CDT
Astronomical Twilight 5:30 AM CDT 7:24 PM CDT
Moon 8:48 PM CDT (10/22) 10:14 AM CDT (10/22)
Length of Visible Light 11h 57m
Length of Day
11h 07m
Waning Gibbous, 86% of the Moon is Illuminated
Oct 22
Waning Gibbous
Oct 26
Last Quarter
Nov 3
New
Nov 9
First Quarter
Nov 17
Full

Hourly Weather History & Observations

Time (CDT) Temp. Dew Point Humidity Pressure Visibility Wind Dir Wind Speed Gust Speed Precip Events Conditions
12:53 AM 57.0 °F 55.0 °F 93% 30.03 in 10.0 mi Calm Calm - N/A   Overcast
1:53 AM 57.0 °F 55.0 °F 93% 30.01 in 10.0 mi Calm Calm - 0.01 in   Overcast
2:53 AM 57.0 °F 55.0 °F 93% 30.02 in 10.0 mi Calm Calm - 0.01 in Rain Light Rain
3:53 AM 57.0 °F 55.0 °F 93% 30.01 in 10.0 mi NNE 3.5 mph - 0.00 in Rain Light Rain
4:53 AM 57.0 °F 55.0 °F 93% 30.00 in 10.0 mi Calm Calm - 0.00 in   Overcast
5:53 AM 57.0 °F 55.0 °F 93% 30.02 in 8.0 mi Calm Calm - N/A   Mostly Cloudy
6:53 AM 57.0 °F 54.0 °F 89% 30.01 in 9.0 mi Calm Calm - N/A   Overcast
7:53 AM 57.0 °F 54.0 °F 89% 30.01 in 9.0 mi NNE 3.5 mph - N/A   Overcast
8:53 AM 57.0 °F 55.0 °F 93% 30.02 in 9.0 mi Calm Calm - N/A   Overcast
9:53 AM 61.0 °F 55.0 °F 81% 30.00 in 10.0 mi NE 3.5 mph - N/A   Scattered Clouds
10:53 AM 66.9 °F 52.0 °F 59% 29.98 in 10.0 mi SE 3.5 mph - N/A   Clear
11:53 AM 71.1 °F 37.9 °F 30% 29.96 in 10.0 mi WSW 6.9 mph - N/A   Clear
12:53 PM 72.0 °F 42.1 °F 34% 29.93 in 10.0 mi WSW 5.8 mph - N/A   Mostly Cloudy
1:53 PM 72.0 °F 42.1 °F 34% 29.90 in 10.0 mi WSW 9.2 mph - N/A   Overcast
2:53 PM 72.0 °F 42.1 °F 34% 29.88 in 10.0 mi SSW 3.5 mph - N/A   Partly Cloudy
3:53 PM 73.0 °F 43.0 °F 34% 29.88 in 10.0 mi SW 4.6 mph - N/A   Clear
4:53 PM 72.0 °F 45.0 °F 38% 29.88 in 10.0 mi West 5.8 mph - N/A   Clear
5:53 PM 68.0 °F 48.0 °F 49% 29.88 in 10.0 mi WNW 5.8 mph - N/A   Clear
6:53 PM 63.0 °F 51.1 °F 65% 29.89 in 10.0 mi SW 3.5 mph - N/A   Overcast
7:53 PM 57.9 °F 51.1 °F 78% 29.91 in 10.0 mi SSW 3.5 mph - N/A   Clear
8:53 PM 59.0 °F 53.1 °F 81% 29.92 in 10.0 mi Calm Calm - N/A   Mostly Cloudy
9:53 PM 57.0 °F 51.1 °F 81% 29.93 in 10.0 mi South 4.6 mph - N/A   Clear
10:53 PM 55.0 °F 51.1 °F 86% 29.92 in 10.0 mi Calm Calm - N/A   Clear
11:53 PM 53.1 °F 51.1 °F 93% 29.92 in 10.0 mi Calm Calm - N/A   Clear